When you browse on this site, cookies collect data to enhance your experience and personalize the content and advertising you see.
Visit our Privacy Policy to learn more. By continuing to use the site, you agree to this use of cookies and data.
  • En España
  • Lista de países
  • Para 7 días
  • Temperatura del agua
  • Mapa Satelital
  • El tiempo en el mapa
  • Informadores
  • user-avatar
    Iniciar sesión

    Tiempo cada hora Mauritius

    Hoy, 19 Diciembre, Miércoles

    Tiempo Temperatura Precipitaciones Viento Presión Humedad
    00:00 +24°C° 0.3 mm 8 mps 724 mmHg 79%
    01:00 +24°C° 0.3 mm 8 mps 724 mmHg 79%
    02:00 +24°C° 0.2 mm 9 mps 724 mmHg 79%
    03:00 +24°C° 0.2 mm 9 mps 724 mmHg 79%
    04:00 +24°C° 0.2 mm 9 mps 723 mmHg 79%
    05:00 +24°C° 0.1 mm 9 mps 724 mmHg 79%
    06:00 +24°C° 0.1 mm 9 mps 724 mmHg 78%
    07:00 +24°C° 0.1 mm 9 mps 724 mmHg 78%
    08:00 +26°C° 0 mm 9 mps 724 mmHg 75%
    09:00 +26°C° 0 mm 9 mps 724 mmHg 72%
    10:00 +27°C° 0 mm 8 mps 724 mmHg 69%
    11:00 +27°C° 0 mm 8 mps 724 mmHg 68%
    12:00 +27°C° 0 mm 8 mps 724 mmHg 67%
    13:00 +27°C° 0 mm 8 mps 724 mmHg 66%
    14:00 +27°C° 0 mm 8 mps 724 mmHg 67%
    15:00 +27°C° 0 mm 8 mps 724 mmHg 68%
    16:00 +27°C° 0 mm 8 mps 723 mmHg 69%
    17:00 +26°C° 0 mm 8 mps 724 mmHg 70%
    18:00 +26°C° 0 mm 8 mps 724 mmHg 72%
    19:00 +26°C° 0 mm 8 mps 724 mmHg 74%
    20:00 +24°C° 0.1 mm 8 mps 724 mmHg 75%
    21:00 +24°C° 0.1 mm 8 mps 724 mmHg 77%
    22:00 +24°C° 0.1 mm 8 mps 725 mmHg 78%
    23:00 +24°C° 0.2 mm 8 mps 724 mmHg 79%

    Mañana, 20 Diciembre, Jueves

    Tiempo Temperatura Precipitaciones Viento Presión Humedad
    00:00 +24°C° 0.2 mm 8 mps 724 mmHg 79%
    01:00 +24°C° 0.2 mm 9 mps 723 mmHg 80%
    02:00 +24°C° 0.4 mm 9 mps 723 mmHg 80%
    03:00 +24°C° 0.4 mm 9 mps 723 mmHg 81%
    04:00 +24°C° 0.4 mm 9 mps 722 mmHg 81%
    05:00 +24°C° 0.2 mm 9 mps 723 mmHg 81%
    06:00 +24°C° 0.2 mm 9 mps 723 mmHg 80%
    07:00 +24°C° 0.2 mm 9 mps 723 mmHg 80%
    08:00 +26°C° 0 mm 9 mps 723 mmHg 78%
    09:00 +26°C° 0 mm 9 mps 723 mmHg 76%
    10:00 +26°C° 0 mm 9 mps 723 mmHg 73%
    11:00 +27°C° 0 mm 8 mps 723 mmHg 72%
    12:00 +27°C° 0 mm 8 mps 723 mmHg 70%
    13:00 +27°C° 0 mm 8 mps 723 mmHg 69%
    14:00 +27°C° 0 mm 8 mps 722 mmHg 69%
    15:00 +27°C° 0 mm 8 mps 722 mmHg 70%
    16:00 +27°C° 0 mm 8 mps 721 mmHg 71%
    17:00 +27°C° 0 mm 8 mps 722 mmHg 72%
    18:00 +26°C° 0 mm 8 mps 722 mmHg 74%
    19:00 +26°C° 0 mm 8 mps 722 mmHg 76%
    20:00 +26°C° 0 mm 8 mps 722 mmHg 77%
    21:00 +26°C° 0 mm 8 mps 722 mmHg 78%
    22:00 +24°C° 0 mm 8 mps 723 mmHg 80%
    23:00 +24°C° 0 mm 8 mps 722 mmHg 80%

    Pasado mañana, 21 Diciembre, Viernes

    Tiempo Temperatura Precipitaciones Viento Presión Humedad
    00:00 +24°C° 0 mm 8 mps 722 mmHg 80%
    01:00 +24°C° 0 mm 8 mps 721 mmHg 81%
    02:00 +24°C° 0 mm 8 mps 721 mmHg 81%
    03:00 +24°C° 0 mm 8 mps 721 mmHg 80%
    04:00 +24°C° 0 mm 7 mps 720 mmHg 80%
    05:00 +24°C° 0 mm 8 mps 721 mmHg 80%
    06:00 +24°C° 0 mm 8 mps 721 mmHg 79%
    07:00 +26°C° 0 mm 8 mps 721 mmHg 79%
    08:00 +26°C° 0 mm 8 mps 721 mmHg 77%
    09:00 +27°C° 0 mm 8 mps 721 mmHg 75%
    10:00 +27°C° 0 mm 8 mps 721 mmHg 74%
    11:00 +27°C° 0.1 mm 8 mps 720 mmHg 75%
    12:00 +27°C° 0.1 mm 8 mps 720 mmHg 76%
    13:00 +27°C° 0.1 mm 8 mps 720 mmHg 77%
    14:00 +26°C° 0.5 mm 8 mps 719 mmHg 78%
    15:00 +26°C° 0.5 mm 8 mps 719 mmHg 79%
    16:00 +26°C° 0.5 mm 8 mps 719 mmHg 80%
    17:00 +26°C° 1 mm 8 mps 719 mmHg 81%
    18:00 +26°C° 1 mm 8 mps 719 mmHg 82%
    19:00 +26°C° 1 mm 8 mps 719 mmHg 84%
    20:00 +24°C° 1.8 mm 8 mps 719 mmHg 85%
    21:00 +24°C° 1.8 mm 8 mps 720 mmHg 86%
    22:00 +24°C° 1.8 mm 8 mps 720 mmHg 88%
    23:00 +24°C° 2.3 mm 8 mps 719 mmHg 88%

    22 Diciembre, Sábado

    Tiempo Temperatura Precipitaciones Viento Presión Humedad
    00:00 +24°C° 2.3 mm 8 mps 719 mmHg 89%
    01:00 +24°C° 2.3 mm 8 mps 718 mmHg 89%
    02:00 +24°C° 1.5 mm 8 mps 718 mmHg 89%
    03:00 +24°C° 1.5 mm 8 mps 718 mmHg 88%
    04:00 +24°C° 1.5 mm 8 mps 717 mmHg 88%
    05:00 +24°C° 1 mm 8 mps 718 mmHg 88%
    06:00 +24°C° 1 mm 8 mps 718 mmHg 87%
    07:00 +26°C° 1 mm 8 mps 718 mmHg 87%
    08:00 +26°C° 0.4 mm 7 mps 718 mmHg 85%
    09:00 +26°C° 0.4 mm 7 mps 718 mmHg 84%
    10:00 +27°C° 0.4 mm 7 mps 719 mmHg 82%
    11:00 +27°C° 0.7 mm 7 mps 718 mmHg 81%
    12:00 +28°C° 0.7 mm 7 mps 718 mmHg 80%
    13:00 +28°C° 0.7 mm 7 mps 718 mmHg 79%
    14:00 +28°C° 0.7 mm 6 mps 717 mmHg 79%
    15:00 +28°C° 0.7 mm 6 mps 717 mmHg 80%
    16:00 +27°C° 0.7 mm 6 mps 716 mmHg 80%
    17:00 +27°C° 0.5 mm 6 mps 717 mmHg 82%
    18:00 +27°C° 0.5 mm 6 mps 717 mmHg 84%
    19:00 +26°C° 0.5 mm 6 mps 717 mmHg 86%
    20:00 +26°C° 0.6 mm 6 mps 717 mmHg 86%
    21:00 +26°C° 0.6 mm 6 mps 718 mmHg 87%
    22:00 +26°C° 0.6 mm 6 mps 718 mmHg 88%
    23:00 +26°C° 0.4 mm 7 mps 717 mmHg 87%

    23 Diciembre, Domingo

    Tiempo Temperatura Precipitaciones Viento Presión Humedad
    00:00 +26°C° 0.4 mm 7 mps 717 mmHg 87%
    01:00 +26°C° 0.4 mm 7 mps 716 mmHg 87%
    02:00 +26°C° 0.4 mm 7 mps 716 mmHg 87%
    03:00 +26°C° 0.4 mm 7 mps 716 mmHg 87%
    04:00 +26°C° 0.4 mm 7 mps 715 mmHg 87%
    05:00 +26°C° 0.4 mm 8 mps 716 mmHg 87%
    06:00 +26°C° 0.4 mm 8 mps 716 mmHg 87%
    07:00 +26°C° 0.4 mm 8 mps 716 mmHg 87%
    08:00 +26°C° 0.7 mm 8 mps 716 mmHg 86%
    09:00 +27°C° 0.7 mm 8 mps 716 mmHg 85%
    10:00 +27°C° 0.7 mm 8 mps 716 mmHg 84%
    11:00 +27°C° 0.6 mm 8 mps 716 mmHg 84%
    12:00 +27°C° 0.6 mm 7 mps 715 mmHg 83%
    13:00 +27°C° 0.6 mm 7 mps 715 mmHg 83%
    14:00 +27°C° 0.7 mm 7 mps 715 mmHg 82%
    15:00 +27°C° 0.7 mm 7 mps 715 mmHg 81%
    16:00 +27°C° 0.7 mm 7 mps 715 mmHg 80%
    17:00 +27°C° 0.5 mm 7 mps 716 mmHg 81%
    18:00 +27°C° 0.5 mm 7 mps 716 mmHg 82%
    19:00 +26°C° 0.5 mm 6 mps 717 mmHg 83%
    20:00 +26°C° 0.8 mm 6 mps 717 mmHg 83%
    21:00 +26°C° 0.8 mm 6 mps 718 mmHg 83%
    22:00 +26°C° 0.8 mm 5 mps 718 mmHg 83%
    23:00 +26°C° 1.2 mm 5 mps 718 mmHg 82%

    24 Diciembre, Lunes

    Tiempo Temperatura Precipitaciones Viento Presión Humedad
    00:00 +26°C° 1.2 mm 5 mps 717 mmHg 82%
    01:00 +26°C° 1.2 mm 4 mps 717 mmHg 82%
    02:00 +26°C° 0.2 mm 4 mps 717 mmHg 82%
    03:00 +26°C° 0.2 mm 4 mps 716 mmHg 82%
    04:00 +26°C° 0.2 mm 4 mps 716 mmHg 82%
    05:00 +26°C° 0 mm 3 mps 717 mmHg 82%
    06:00 +26°C° 0 mm 3 mps 717 mmHg 81%
    07:00 +26°C° 0 mm 3 mps 717 mmHg 80%
    08:00 +27°C° 0 mm 3 mps 717 mmHg 78%
    09:00 +27°C° 0 mm 3 mps 717 mmHg 76%
    10:00 +28°C° 0 mm 3 mps 718 mmHg 73%
    11:00 +28°C° 0.1 mm 3 mps 717 mmHg 72%
    12:00 +28°C° 0.1 mm 4 mps 717 mmHg 72%
    13:00 +28°C° 0.1 mm 4 mps 717 mmHg 71%
    14:00 +28°C° 0.1 mm 4 mps 717 mmHg 72%
    15:00 +28°C° 0.1 mm 4 mps 717 mmHg 72%
    16:00 +28°C° 0.1 mm 4 mps 717 mmHg 73%
    17:00 +27°C° 0.1 mm 4 mps 717 mmHg 75%
    18:00 +27°C° 0.1 mm 4 mps 718 mmHg 76%
    19:00 +27°C° 0.1 mm 4 mps 718 mmHg 78%
    20:00 +27°C° 0 mm 3 mps 718 mmHg 78%
    21:00 +26°C° 0 mm 3 mps 719 mmHg 79%
    22:00 +26°C° 0 mm 2 mps 719 mmHg 79%
    23:00 +26°C° 0 mm 2 mps 718 mmHg 80%
    Mostrar más